This is the latest recevied weather packets stored in our database for station/object W4OCD. If no packets are shown the sender has not sent any weather packets the latest 10 day(s).
| Time | Temp. | Humidity | Pressure | Rain* | Wind** | Luminosity | Snow |
|---|---|---|---|---|---|---|---|
| 1777872464 | 9.44° C | 91% | 1018.6 hPa | 0 mm | - | 0 W/m² | - |
| 1777872163 | 10° C | 91% | 1018.5 hPa | 0 mm | - | 0 W/m² | - |
| 1777871859 | 10° C | 91% | 1018.4 hPa | 0 mm | - | 0 W/m² | - |
| 1777871555 | 9.44° C | 92% | 1018.3 hPa | 0 mm | - | 0 W/m² | - |
| 1777871252 | 9.44° C | 91% | 1018.5 hPa | 0 mm | - | 0 W/m² | - |
| 1777870949 | 9.44° C | 91% | 1018.4 hPa | 0 mm | - | 0 W/m² | - |
| 1777870647 | 9.44° C | 91% | 1018.6 hPa | 0 mm | - | 0 W/m² | - |
| 1777870341 | 10° C | 91% | 1018.4 hPa | 0 mm | - | 0 W/m² | - |
| 1777870039 | 10° C | 90% | 1018.5 hPa | 0 mm | - | 0 W/m² | - |
| 1777869737 | 10° C | 90% | 1018.5 hPa | 0 mm | - | 0 W/m² | - |
| 1777869434 | 10° C | 90% | 1018.4 hPa | 0 mm | - | 0 W/m² | - |
| 1777869130 | 10° C | 89% | 1018.6 hPa | 0 mm | - | 0 W/m² | - |
| 1777868828 | 10.56° C | 88% | 1018.5 hPa | 0 mm | - | 0 W/m² | - |
| 1777868524 | 10.56° C | 88% | 1018.6 hPa | 0 mm | - | 0 W/m² | - |
| 1777868220 | 10.56° C | 88% | 1018.7 hPa | 0 mm | - | 0 W/m² | - |
| 1777867916 | 10° C | 88% | 1018.7 hPa | 0 mm | - | 0 W/m² | - |
| 1777867613 | 10.56° C | 88% | 1018.8 hPa | 0 mm | - | 0 W/m² | - |
| 1777867310 | 10.56° C | 87% | 1018.8 hPa | 0 mm | - | 0 W/m² | - |
| 1777867007 | 10.56° C | 86% | 1018.8 hPa | 0 mm | - | 0 W/m² | - |
| 1777866704 | 10.56° C | 86% | 1019.2 hPa | 0 mm | - | 0 W/m² | - |
| 1777865796 | 10.56° C | 85% | 1019.2 hPa | 0 mm | - | 0 W/m² | - |
| 1777865190 | 11.11° C | 85% | 1018.8 hPa | 0 mm | - | 0 W/m² | - |
| 1777863068 | 11.67° C | 79% | 1018.6 hPa | 0 mm | - | 0 W/m² | - |
| 1777846701 | 23.33° C | 38% | 1017.6 hPa | 0 mm | - | 288 W/m² | - |
| 1777846095 | 22.22° C | 42% | 1017.7 hPa | 0 mm | - | 303 W/m² | - |
* Rain latest hour (hover to see other rain measurements)
** Current wind speed in m/s (hover to see current wind gust speed)